Weather History for Kalamazoo, MI

Change the Weather History Date:

Monday, February 25, 2013

  Actual Average Record
Temperature  
Mean Temperature 28 °F 29 °F  
Max Temperature 40 °F 37 °F 64 °F (1976)
Min Temperature 15 °F 22 °F -2 °F (1950)
Degree Days  
Heating Degree Days 37 36  
Month to date heating degree days 1005 961  
Since 1 July heating degree days 4456 4669  
Cooling Degree Days 0 0  
Month to date cooling degree days 0 0  
Year to date cooling degree days 0 0  
Moisture  
Dew Point 17 °F    
Average Humidity 70    
Maximum Humidity 92    
Minimum Humidity 48    
Precipitation  
Precipitation 0.00 in 0.06 in 0.90 in (1961)
Month to date precipitation 0.76 1.27  
Year to date precipitation 4.16 3.06  
Sea Level Pressure  
Sea Level Pressure 30.17 in    
Wind  
Wind Speed 2 mph (ESE)    
Max Wind Speed 8 mph    
Max Gust Speed 10 mph    
Visibility 4 miles    
Events Fog    
T = Trace of Precipitation, MM = Missing Value Source: NWS Daily Summary

Daily Weather History Graph

Daily Weather History Graph

Search for Another Location

Airport:

Trip Planner

Search our weather history database for the weather conditions in past years. The results will help you decide how hot, cold, wet, or windy it might be!

Date:

Astronomy

Feb. 25, 2013 Rise Set
Actual Time 7:23 AM EST 6:27 PM EST
Civil Twilight 6:55 AM EST 6:55 PM EST
Nautical Twilight 6:22 AM EST 7:28 PM EST
Astronomical Twilight 5:50 AM EST 8:00 PM EST
Moon 6:41 PM EST (2/25) 6:52 AM EST (2/25)
Length of Visible Light 12h 00m
Length of Day
11h 04m
Full, 100% of the Moon is Illuminated
Feb 25
Full
Feb 25
Full
Mar 4
Last Quarter
Mar 11
New
Mar 19
First Quarter

Hourly Weather History & Observations

Time (EST) Temp. Windchill Dew Point Humidity Pressure Visibility Wind Dir Wind Speed Gust Speed Precip Events Conditions
12:02 AM 17.6 °F - 15.8 °F 93% 30.15 in 0.5 mi Calm Calm - N/A Fog Light Freezing Fog
12:25 AM 17.6 °F - 15.8 °F 93% 30.14 in 2.0 mi Calm Calm - N/A   Clear
12:32 AM 17.6 °F - 15.8 °F 93% 30.15 in 5.0 mi Calm Calm - N/A   Clear
12:53 AM 16.0 °F - 12.9 °F 88% 30.19 in 5.0 mi Calm Calm - N/A   Clear
1:37 AM 15.8 °F - 12.2 °F 86% 30.16 in 3.0 mi Calm Calm - N/A   Scattered Clouds
1:40 AM 15.8 °F - 12.2 °F 86% 30.16 in 1.0 mi Calm Calm - N/A   Mist
1:43 AM 15.8 °F - 12.2 °F 86% 30.16 in 0.2 mi Calm Calm - N/A Fog Light Freezing Fog
1:49 AM 15.8 °F - 12.2 °F 86% 30.16 in 0.2 mi Calm Calm - N/A Fog Light Freezing Fog
1:53 AM 15.1 °F - 12.9 °F 91% 30.20 in 0.2 mi Calm Calm - N/A Fog Light Freezing Fog
2:02 AM 15.8 °F - 14.0 °F 93% 30.16 in 0.2 mi Calm Calm - N/A Fog Light Freezing Fog
2:22 AM 17.6 °F - 14.0 °F 86% 30.16 in 0.2 mi Calm Calm - N/A Fog Light Freezing Fog
2:53 AM 15.1 °F - 10.0 °F 80% 30.20 in 1.5 mi Calm Calm - N/A   Haze
3:10 AM 15.8 °F - 10.4 °F 79% 30.15 in 3.0 mi Calm Calm - N/A   Mostly Cloudy
3:21 AM 15.8 °F - 10.4 °F 79% 30.15 in 1.8 mi Calm Calm - N/A   Mostly Cloudy
3:46 AM 15.8 °F - 10.4 °F 79% 30.15 in 0.2 mi Calm Calm - N/A   Haze
3:53 AM 15.1 °F - 10.9 °F 84% 30.19 in 0.2 mi Calm Calm - N/A Fog Light Freezing Fog
4:17 AM 15.8 °F - 14.0 °F 93% 30.15 in 0.2 mi Calm Calm - N/A Fog Light Freezing Fog
4:53 AM 18.0 °F - 14.0 °F 84% 30.19 in 0.2 mi Calm Calm - N/A Fog Light Freezing Fog
5:43 AM 17.6 °F - 12.2 °F 79% 30.16 in 0.2 mi Calm Calm - N/A   Haze
5:50 AM 17.6 °F - 12.2 °F 79% 30.17 in 0.2 mi Calm Calm - N/A Fog Light Freezing Fog
5:53 AM 17.1 °F - 12.9 °F 84% 30.21 in 0.2 mi Calm Calm - N/A Fog Light Freezing Fog
6:37 AM 15.8 °F - 12.2 °F 86% 30.18 in 0.2 mi Calm Calm - N/A Fog Light Freezing Fog
6:53 AM 16.0 °F - 10.9 °F 81% 30.22 in 0.2 mi Calm Calm - N/A   Haze
7:53 AM 17.1 °F - 12.0 °F 81% 30.24 in 0.2 mi Calm Calm - N/A   Haze
8:53 AM 19.0 °F - 14.0 °F 81% 30.25 in 0.2 mi Calm Calm - N/A   Haze
9:16 AM 21.2 °F - 17.6 °F 86% 30.20 in 0.8 mi Calm Calm - N/A   Mist
9:20 AM 21.2 °F - 17.6 °F 86% 30.19 in 1.0 mi Calm Calm - N/A   Mist
9:34 AM 23.0 °F - 19.4 °F 86% 30.19 in 1.0 mi Calm Calm - N/A   Clear
9:53 AM 24.1 °F - 19.9 °F 84% 30.24 in 1.8 mi Calm Calm - N/A   Clear
10:14 AM 26.6 °F - 21.2 °F 80% 30.18 in 2.0 mi Calm Calm - N/A   Haze
10:43 AM 26.6 °F - 24.8 °F 93% 30.18 in 3.0 mi Calm Calm - N/A   Clear
10:53 AM 28.0 °F - 25.0 °F 88% 30.23 in 3.0 mi Calm Calm - N/A   Clear
11:53 AM 33.1 °F 27.7 °F 23.0 °F 66% 30.23 in 10.0 mi South 5.8 mph - N/A   Clear
12:53 PM 37.0 °F 32.4 °F 21.9 °F 54% 30.20 in 10.0 mi ESE 5.8 mph - N/A   Clear
1:53 PM 37.9 °F 32.7 °F 21.0 °F 51% 30.19 in 10.0 mi ESE 6.9 mph - N/A   Clear
2:53 PM 39.0 °F 36.8 °F 21.9 °F 50% 30.17 in 10.0 mi Variable 3.5 mph - N/A   Clear
3:53 PM 39.0 °F 35.7 °F 21.9 °F 50% 30.15 in 10.0 mi ESE 4.6 mph - N/A   Clear
4:53 PM 39.0 °F 36.8 °F 21.9 °F 50% 30.14 in 10.0 mi ESE 3.5 mph - N/A   Clear
5:53 PM 37.9 °F 33.5 °F 21.9 °F 53% 30.13 in 10.0 mi ESE 5.8 mph - N/A   Clear
6:53 PM 35.1 °F - 21.9 °F 59% 30.14 in 10.0 mi Calm Calm - N/A   Clear
7:53 PM 34.0 °F 28.8 °F 23.0 °F 64% 30.12 in 10.0 mi NE 5.8 mph - N/A   Clear
8:53 PM 32.0 °F 27.5 °F 21.9 °F 66% 30.10 in 10.0 mi East 4.6 mph - N/A   Clear
9:53 PM 32.0 °F 27.5 °F 23.0 °F 69% 30.09 in 10.0 mi NE 4.6 mph - N/A   Clear
10:53 PM 30.0 °F - 21.9 °F 72% 30.12 in 10.0 mi Calm Calm - N/A   Clear
11:53 PM 30.0 °F - 23.0 °F 75% 30.11 in 9.0 mi Calm Calm - N/A   Clear